When you browse on this site, cookies collect data to enhance your experience and personalize the content and advertising you see.
Visit our Privacy Policy to learn more. By continuing to use the site, you agree to this use of cookies and data.
  • In Hungary
  • List of Countries
  • For 7 days
  • Water Temperature
  • Satellite Maps
  • Weather Map
  • News
  • Weather Widgets
  • user-avatar
    Login

    Hourly Weather Huangmei

    Today, 18 December, Tuesday

    Time Temperature Precipitation Wind Pressure Humidity
    00:00 +8°C° 0 mm 2 mps 767 mmHg 61%
    01:00 +9°C° 0 mm 1 mps 767 mmHg 63%
    02:00 +9°C° 0 mm 1 mps 767 mmHg 65%
    03:00 +8°C° 0 mm 1 mps 767 mmHg 66%
    04:00 +8°C° 0 mm 1 mps 767 mmHg 67%
    05:00 +8°C° 0 mm 1 mps 766 mmHg 67%
    06:00 +8°C° 0 mm 1 mps 766 mmHg 68%
    07:00 +8°C° 0 mm 1 mps 766 mmHg 68%
    08:00 +9°C° 0 mm 1 mps 767 mmHg 66%
    09:00 +10°C° 0 mm 1 mps 767 mmHg 60%
    10:00 +12°C° 0 mm 2 mps 767 mmHg 54%
    11:00 +14°C° 0 mm 2 mps 766 mmHg 47%
    12:00 +15°C° 0 mm 2 mps 766 mmHg 44%
    13:00 +16°C° 0 mm 2 mps 765 mmHg 40%
    14:00 +17°C° 0 mm 2 mps 764 mmHg 36%
    15:00 +17°C° 0 mm 2 mps 764 mmHg 40%
    16:00 +16°C° 0 mm 2 mps 764 mmHg 44%
    17:00 +15°C° 0 mm 2 mps 763 mmHg 48%
    18:00 +14°C° 0 mm 2 mps 764 mmHg 51%
    19:00 +13°C° 0 mm 2 mps 764 mmHg 54%
    20:00 +12°C° 0 mm 2 mps 764 mmHg 57%
    21:00 +12°C° 0 mm 2 mps 764 mmHg 58%
    22:00 +12°C° 0 mm 2 mps 764 mmHg 59%
    23:00 +11°C° 0 mm 1 mps 764 mmHg 60%

    Tomorrow, 19 December, Wednesday

    Time Temperature Precipitation Wind Pressure Humidity
    00:00 +11°C° 0 mm 1 mps 764 mmHg 60%
    01:00 +11°C° 0 mm 1 mps 763 mmHg 60%
    02:00 +11°C° 0 mm 1 mps 763 mmHg 60%
    03:00 +12°C° 0 mm 1 mps 763 mmHg 59%
    04:00 +12°C° 0 mm 1 mps 763 mmHg 59%
    05:00 +12°C° 0 mm 1 mps 763 mmHg 59%
    06:00 +12°C° 0 mm 1 mps 763 mmHg 59%
    07:00 +12°C° 0 mm 1 mps 763 mmHg 60%
    08:00 +12°C° 0 mm 1 mps 763 mmHg 60%
    09:00 +13°C° 0 mm 1 mps 763 mmHg 60%
    10:00 +12°C° 0 mm 0 mps 763 mmHg 60%
    11:00 +12°C° 0 mm 0 mps 764 mmHg 60%
    12:00 +12°C° 0 mm 0 mps 763 mmHg 60%
    13:00 +12°C° 0 mm 0 mps 762 mmHg 61%
    14:00 +12°C° 0 mm 0 mps 762 mmHg 62%
    15:00 +12°C° 0 mm 0 mps 762 mmHg 63%
    16:00 +13°C° 0 mm 1 mps 762 mmHg 63%
    17:00 +13°C° 0 mm 1 mps 762 mmHg 64%
    18:00 +13°C° 0.2 mm 1 mps 762 mmHg 67%
    19:00 +12°C° 0.2 mm 1 mps 763 mmHg 70%
    20:00 +12°C° 0.2 mm 1 mps 763 mmHg 73%
    21:00 +12°C° 1.1 mm 1 mps 763 mmHg 77%
    22:00 +10°C° 1.1 mm 2 mps 763 mmHg 82%
    23:00 +10°C° 1.1 mm 2 mps 763 mmHg 86%

    Day after tomorrow, 20 December, Thursday

    Time Temperature Precipitation Wind Pressure Humidity
    00:00 +10°C° 0.5 mm 2 mps 763 mmHg 87%
    01:00 +10°C° 0.5 mm 2 mps 763 mmHg 88%
    02:00 +10°C° 0.5 mm 2 mps 763 mmHg 89%
    03:00 +10°C° 0.5 mm 2 mps 763 mmHg 89%
    04:00 +9°C° 0.5 mm 2 mps 762 mmHg 90%
    05:00 +9°C° 0.5 mm 2 mps 762 mmHg 91%
    06:00 +9°C° 0.4 mm 2 mps 762 mmHg 91%
    07:00 +9°C° 0.4 mm 2 mps 763 mmHg 91%
    08:00 +10°C° 0.4 mm 1 mps 763 mmHg 91%
    09:00 +11°C° 0 mm 1 mps 763 mmHg 86%
    10:00 +13°C° 0 mm 1 mps 763 mmHg 81%
    11:00 +14°C° 0 mm 1 mps 763 mmHg 76%
    12:00 +14°C° 0 mm 1 mps 762 mmHg 73%
    13:00 +15°C° 0 mm 1 mps 761 mmHg 71%
    14:00 +16°C° 0 mm 1 mps 761 mmHg 68%
    15:00 +16°C° 0 mm 1 mps 761 mmHg 70%
    16:00 +15°C° 0 mm 1 mps 761 mmHg 73%
    17:00 +15°C° 0 mm 1 mps 761 mmHg 75%
    18:00 +14°C° 0 mm 1 mps 761 mmHg 78%
    19:00 +14°C° 0 mm 2 mps 761 mmHg 80%
    20:00 +13°C° 0 mm 2 mps 762 mmHg 83%
    21:00 +13°C° 0 mm 2 mps 762 mmHg 84%
    22:00 +13°C° 0 mm 2 mps 762 mmHg 85%
    23:00 +13°C° 0 mm 2 mps 762 mmHg 86%

    21 December, Friday

    Time Temperature Precipitation Wind Pressure Humidity
    00:00 +13°C° 0 mm 2 mps 762 mmHg 86%
    01:00 +13°C° 0 mm 2 mps 762 mmHg 86%
    02:00 +13°C° 0 mm 1 mps 762 mmHg 86%
    03:00 +12°C° 0 mm 1 mps 762 mmHg 85%
    04:00 +12°C° 0 mm 1 mps 762 mmHg 85%
    05:00 +12°C° 0 mm 1 mps 762 mmHg 85%
    06:00 +13°C° 0 mm 1 mps 762 mmHg 85%
    07:00 +13°C° 0 mm 1 mps 763 mmHg 85%
    08:00 +13°C° 0 mm 1 mps 763 mmHg 84%
    09:00 +13°C° 0 mm 1 mps 764 mmHg 82%
    10:00 +14°C° 0 mm 1 mps 764 mmHg 80%
    11:00 +15°C° 0 mm 1 mps 764 mmHg 77%
    12:00 +15°C° 0 mm 2 mps 764 mmHg 74%
    13:00 +16°C° 0 mm 2 mps 763 mmHg 71%
    14:00 +17°C° 0 mm 3 mps 762 mmHg 68%
    15:00 +17°C° 0 mm 3 mps 762 mmHg 70%
    16:00 +16°C° 0 mm 3 mps 762 mmHg 72%
    17:00 +16°C° 0 mm 3 mps 762 mmHg 73%
    18:00 +16°C° 0 mm 3 mps 763 mmHg 76%
    19:00 +14°C° 0 mm 4 mps 763 mmHg 78%
    20:00 +14°C° 0 mm 4 mps 763 mmHg 80%
    21:00 +14°C° 0.8 mm 4 mps 764 mmHg 82%
    22:00 +13°C° 0.8 mm 4 mps 764 mmHg 85%
    23:00 +13°C° 0.8 mm 3 mps 764 mmHg 87%

    22 December, Saturday

    Time Temperature Precipitation Wind Pressure Humidity
    00:00 +13°C° 0.9 mm 3 mps 764 mmHg 88%
    01:00 +13°C° 0.9 mm 3 mps 764 mmHg 88%
    02:00 +13°C° 0.9 mm 3 mps 763 mmHg 88%
    03:00 +13°C° 0.8 mm 3 mps 763 mmHg 89%
    04:00 +13°C° 0.8 mm 3 mps 764 mmHg 90%
    05:00 +13°C° 0.8 mm 3 mps 764 mmHg 91%
    06:00 +13°C° 0.2 mm 3 mps 764 mmHg 90%
    07:00 +13°C° 0.2 mm 3 mps 764 mmHg 90%
    08:00 +13°C° 0.2 mm 3 mps 765 mmHg 89%
    09:00 +13°C° 0.1 mm 3 mps 765 mmHg 87%
    10:00 +13°C° 0.1 mm 3 mps 765 mmHg 85%
    11:00 +14°C° 0.1 mm 3 mps 765 mmHg 83%
    12:00 +14°C° 0.2 mm 3 mps 765 mmHg 82%
    13:00 +14°C° 0.2 mm 4 mps 765 mmHg 81%
    14:00 +15°C° 0.2 mm 4 mps 764 mmHg 80%
    15:00 +14°C° 0.7 mm 4 mps 765 mmHg 83%
    16:00 +14°C° 0.7 mm 4 mps 765 mmHg 86%
    17:00 +13°C° 0.7 mm 4 mps 765 mmHg 89%
    18:00 +13°C° 0.3 mm 4 mps 766 mmHg 89%
    19:00 +13°C° 0.3 mm 4 mps 766 mmHg 89%
    20:00 +13°C° 0.3 mm 4 mps 767 mmHg 89%
    21:00 +12°C° 0.3 mm 3 mps 767 mmHg 89%
    22:00 +12°C° 0.3 mm 3 mps 767 mmHg 89%
    23:00 +12°C° 0.3 mm 3 mps 767 mmHg 88%

    23 December, Sunday

    Time Temperature Precipitation Wind Pressure Humidity
    00:00 +12°C° 0.1 mm 3 mps 767 mmHg 88%
    01:00 +12°C° 0.1 mm 3 mps 767 mmHg 88%
    02:00 +12°C° 0.1 mm 3 mps 767 mmHg 88%
    03:00 +12°C° 0 mm 3 mps 767 mmHg 88%
    04:00 +12°C° 0 mm 3 mps 767 mmHg 88%
    05:00 +12°C° 0 mm 3 mps 767 mmHg 88%
    06:00 +12°C° 0 mm 3 mps 767 mmHg 88%
    07:00 +12°C° 0 mm 3 mps 767 mmHg 87%
    08:00 +12°C° 0 mm 4 mps 768 mmHg 86%
    09:00 +12°C° 0 mm 4 mps 768 mmHg 82%
    10:00 +13°C° 0 mm 4 mps 768 mmHg 78%
    11:00 +14°C° 0 mm 5 mps 768 mmHg 74%
    12:00 +14°C° 0 mm 5 mps 767 mmHg 73%
    13:00 +14°C° 0 mm 5 mps 767 mmHg 71%
    14:00 +15°C° 0 mm 5 mps 766 mmHg 70%
    15:00 +14°C° 0 mm 5 mps 766 mmHg 72%
    16:00 +14°C° 0 mm 5 mps 766 mmHg 74%
    17:00 +13°C° 0 mm 5 mps 766 mmHg 76%
    18:00 +12°C° 0 mm 5 mps 766 mmHg 78%
    19:00 +12°C° 0 mm 5 mps 767 mmHg 80%
    20:00 +10°C° 0 mm 5 mps 767 mmHg 82%
    21:00 +11°C° 0 mm 4 mps 767 mmHg 83%
    22:00 +11°C° 0 mm 4 mps 767 mmHg 83%
    23:00 +10°C° 0 mm 4 mps 766 mmHg 84%
    Show more